Time,TemperatureF,DewpointF,PressureIn,WindDirection,WindDirectionDegrees,WindSpeedMPH,WindSpeedGustMPH,Humidity,HourlyPrecipIn,Conditions,Clouds,dailyrainin,SoftwareType,DateUTC
2013-05-12 00:03:00,-999.0,-99.9,30.03,South,180,0.0,1.0,84,0.00,,,0.10,,2013-05-12 04:03:00,
2013-05-12 00:12:00,78.0,73.0,30.03,South,180,0.0,1.0,84,0.00,,,0.10,,2013-05-12 04:12:00,
2013-05-12 00:22:00,78.0,73.0,30.04,South,180,0.0,0.0,84,0.00,,,0.10,,2013-05-12 04:22:00,
2013-05-12 00:33:00,78.0,73.0,30.04,NNW,340,1.0,7.0,85,0.00,,,0.10,,2013-05-12 04:33:00,
2013-05-12 00:43:00,78.0,73.0,30.04,NNW,340,0.0,1.0,85,0.00,,,0.10,,2013-05-12 04:43:00,
2013-05-12 00:52:00,78.0,73.0,30.04,NNW,340,0.0,1.0,85,0.00,,,0.10,,2013-05-12 04:52:00,
2013-05-12 01:02:00,77.0,72.0,30.03,NNW,338,2.0,4.0,85,0.00,,,0.10,,2013-05-12 05:02:00,
2013-05-12 01:12:00,77.0,72.0,30.03,NNW,338,2.0,4.0,85,0.00,,,0.10,,2013-05-12 05:12:00,
2013-05-12 01:22:00,77.0,72.0,30.03,NNW,338,0.0,3.0,86,0.00,,,0.10,,2013-05-12 05:22:00,
2013-05-12 01:32:00,77.0,72.0,30.03,NW,313,0.0,3.0,86,0.00,,,0.10,,2013-05-12 05:32:00,
2013-05-12 01:42:00,77.0,72.0,30.03,NW,313,0.0,3.0,86,0.00,,,0.10,,2013-05-12 05:42:00,
2013-05-12 01:52:00,76.0,72.0,30.02,NW,313,0.0,1.0,86,0.00,,,0.10,,2013-05-12 05:52:00,
2013-05-12 02:01:00,76.0,72.0,30.02,NNW,333,0.0,2.0,86,0.00,,,0.10,,2013-05-12 06:01:00,
2013-05-12 02:11:00,77.0,72.0,30.02,NNW,333,0.0,0.0,86,0.00,,,0.10,,2013-05-12 06:11:00,
2013-05-12 02:21:00,77.0,72.0,30.02,NNW,333,0.0,0.0,86,0.00,,,0.10,,2013-05-12 06:21:00,
2013-05-12 02:32:00,77.0,73.0,30.01,NNW,333,0.0,0.0,87,0.00,,,0.10,,2013-05-12 06:32:00,
2013-05-12 02:42:00,77.0,73.0,30.00,NNW,333,0.0,0.0,87,0.00,,,0.10,,2013-05-12 06:42:00,
2013-05-12 02:52:00,77.0,73.0,30.00,NNW,333,0.0,0.0,87,0.00,,,0.10,,2013-05-12 06:52:00,
2013-05-12 03:01:00,77.0,73.0,29.99,NNW,333,0.0,1.0,87,0.00,,,0.10,,2013-05-12 07:01:00,
2013-05-12 03:11:00,77.0,73.0,29.99,NNW,333,0.0,1.0,87,0.00,,,0.10,,2013-05-12 07:11:00,
2013-05-12 03:22:00,77.0,73.0,29.99,NNW,333,0.0,1.0,87,0.00,,,0.10,,2013-05-12 07:22:00,
2013-05-12 03:32:00,77.0,73.0,29.98,SE,132,0.0,3.0,88,0.00,,,0.10,,2013-05-12 07:32:00,
2013-05-12 03:42:00,77.0,73.0,29.98,SE,132,0.0,3.0,88,0.00,,,0.10,,2013-05-12 07:42:00,
2013-05-12 03:52:00,77.0,73.0,29.98,SE,146,0.0,3.0,88,0.00,,,0.10,,2013-05-12 07:52:00,
2013-05-12 04:02:00,76.0,72.0,29.97,SE,146,0.0,3.0,88,0.00,,,0.10,,2013-05-12 08:02:00,
2013-05-12 04:11:00,76.0,72.0,29.97,SE,146,0.0,3.0,88,0.00,,,0.10,,2013-05-12 08:11:00,
2013-05-12 04:21:00,76.0,72.0,29.97,SE,126,0.0,7.0,88,0.00,,,0.10,,2013-05-12 08:21:00,
2013-05-12 04:32:00,77.0,74.0,29.97,South,170,1.0,4.0,89,0.00,,,0.10,,2013-05-12 08:32:00,
2013-05-12 04:42:00,77.0,74.0,29.97,South,170,1.0,4.0,89,0.00,,,0.10,,2013-05-12 08:42:00,
2013-05-12 04:53:00,77.0,73.0,29.97,South,170,0.0,4.0,88,0.00,,,0.10,,2013-05-12 08:53:00,
2013-05-12 05:01:00,77.0,73.0,29.96,SSE,167,0.0,4.0,88,0.00,,,0.10,,2013-05-12 09:01:00,
2013-05-12 05:11:00,77.0,73.0,29.96,SSE,167,0.0,4.0,88,0.00,,,0.10,,2013-05-12 09:11:00,
2013-05-12 05:21:00,77.0,73.0,29.96,SSE,167,0.0,4.0,88,0.00,,,0.10,,2013-05-12 09:21:00,
2013-05-12 05:33:00,77.0,73.0,29.97,South,182,0.0,5.0,88,0.00,,,0.10,,2013-05-12 09:33:00,
2013-05-12 05:42:00,77.0,73.0,29.97,South,182,0.0,5.0,88,0.00,,,0.10,,2013-05-12 09:42:00,
2013-05-12 05:52:00,77.0,73.0,29.96,South,181,0.0,4.0,88,0.00,,,0.10,,2013-05-12 09:52:00,
2013-05-12 06:03:00,77.0,73.0,29.96,SSE,164,0.0,4.0,88,0.00,,,0.10,,2013-05-12 10:03:00,
2013-05-12 06:12:00,77.0,73.0,29.96,SSE,164,0.0,4.0,88,0.00,,,0.10,,2013-05-12 10:12:00,
2013-05-12 06:22:00,77.0,73.0,29.96,SSE,163,1.0,4.0,88,0.00,,,0.10,,2013-05-12 10:22:00,
2013-05-12 06:33:00,77.0,73.0,29.96,SSE,167,2.0,6.0,87,0.00,,,0.10,,2013-05-12 10:33:00,
2013-05-12 06:42:00,77.0,73.0,29.96,SSE,167,2.0,6.0,87,0.00,,,0.10,,2013-05-12 10:42:00,
2013-05-12 06:52:00,77.0,73.0,29.96,South,191,4.0,7.0,87,0.00,,,0.10,,2013-05-12 10:52:00,
2013-05-12 07:02:00,77.0,72.0,29.95,ESE,103,4.0,8.0,86,0.00,,,0.10,,2013-05-12 11:02:00,
2013-05-12 07:12:00,77.0,72.0,29.95,ESE,103,4.0,8.0,86,0.00,,,0.10,,2013-05-12 11:12:00,
2013-05-12 07:22:00,77.0,72.0,29.96,SE,138,5.0,8.0,85,0.00,,,0.10,,2013-05-12 11:22:00,
2013-05-12 07:32:00,77.0,72.0,29.96,SE,144,5.0,10.0,85,0.00,,,0.10,,2013-05-12 11:32:00,
2013-05-12 07:42:00,78.0,72.0,29.98,South,175,5.0,9.0,83,0.00,,,0.10,,2013-05-12 11:42:00,
2013-05-12 07:52:00,78.0,72.0,29.98,South,175,5.0,9.0,83,0.00,,,0.10,,2013-05-12 11:52:00,
2013-05-12 08:02:00,78.0,72.0,29.98,SSE,167,4.0,8.0,82,0.00,,,0.10,,2013-05-12 12:02:00,
2013-05-12 08:11:00,79.0,73.0,29.98,South,178,5.0,8.0,81,0.00,,,0.10,,2013-05-12 12:11:00,
2013-05-12 08:22:00,79.0,73.0,29.98,South,178,5.0,8.0,81,0.00,,,0.10,,2013-05-12 12:22:00,
2013-05-12 08:32:00,78.0,72.0,29.98,SE,144,3.0,8.0,81,0.00,,,0.10,,2013-05-12 12:32:00,
2013-05-12 08:41:00,78.0,72.0,29.98,SE,144,3.0,8.0,81,0.00,,,0.10,,2013-05-12 12:41:00,
2013-05-12 08:51:00,79.0,73.0,30.00,South,184,6.0,12.0,82,0.00,,,0.10,,2013-05-12 12:51:00,
2013-05-12 09:02:00,79.0,73.0,30.00,SSE,149,7.0,12.0,82,0.00,,,0.10,,2013-05-12 13:02:00,
2013-05-12 09:11:00,79.0,73.0,30.00,SSE,149,7.0,12.0,82,0.00,,,0.10,,2013-05-12 13:11:00,
2013-05-12 09:21:00,79.0,73.0,30.00,SE,142,6.0,14.0,82,0.00,,,0.10,,2013-05-12 13:21:00,
2013-05-12 09:32:00,80.0,74.0,30.00,SE,144,6.0,13.0,81,0.00,,,0.10,,2013-05-12 13:32:00,
2013-05-12 09:42:00,80.0,74.0,30.00,SE,144,6.0,13.0,81,0.00,,,0.10,,2013-05-12 13:42:00,
2013-05-12 09:52:00,80.0,73.0,30.00,SSE,153,3.0,14.0,79,0.00,,,0.10,,2013-05-12 13:52:00,
2013-05-12 10:01:00,81.0,74.0,30.01,SSE,168,7.0,10.0,79,0.00,,,0.10,,2013-05-12 14:01:00,
2013-05-12 10:11:00,81.0,74.0,30.01,SSE,168,7.0,10.0,79,0.00,,,0.10,,2013-05-12 14:11:00,
2013-05-12 10:21:00,81.0,73.0,30.01,South,185,5.0,13.0,78,0.00,,,0.10,,2013-05-12 14:21:00,
2013-05-12 10:32:00,81.0,74.0,30.01,South,184,7.0,13.0,79,0.00,,,0.10,,2013-05-12 14:32:00,
2013-05-12 10:42:00,81.0,73.0,30.01,SSW,192,6.0,14.0,78,0.00,,,0.10,,2013-05-12 14:42:00,
2013-05-12 10:52:00,81.0,73.0,30.01,SSW,192,6.0,14.0,78,0.00,,,0.10,,2013-05-12 14:52:00,
2013-05-12 11:01:00,81.0,73.0,30.01,SSE,160,8.0,15.0,78,0.00,,,0.10,,2013-05-12 15:01:00,
2013-05-12 11:11:00,81.0,73.0,30.01,SSE,160,8.0,15.0,78,0.00,,,0.10,,2013-05-12 15:11:00,
2013-05-12 11:21:00,81.0,73.0,30.01,SE,145,9.0,16.0,78,0.00,,,0.04,,2013-05-12 15:21:00,
2013-05-12 11:34:00,82.0,74.0,30.01,South,173,6.0,14.0,78,0.00,,,0.04,,2013-05-12 15:34:00,
2013-05-12 11:42:00,82.0,74.0,30.01,South,173,6.0,14.0,78,0.00,,,0.04,,2013-05-12 15:42:00,
2013-05-12 11:52:00,82.0,73.0,30.01,SE,145,3.0,13.0,75,0.00,,,0.04,,2013-05-12 15:52:00,
2013-05-12 12:02:00,82.0,74.0,30.01,SSW,198,5.0,13.0,76,0.00,,,0.04,,2013-05-12 16:02:00,
2013-05-12 12:13:00,82.0,74.0,30.01,SSW,198,5.0,13.0,76,0.00,,,0.04,,2013-05-12 16:13:00,
2013-05-12 12:23:00,83.0,74.0,30.01,SSE,153,5.0,12.0,74,0.00,,,0.04,,2013-05-12 16:23:00,
2013-05-12 12:33:00,83.0,75.0,30.01,SSE,161,4.0,13.0,76,0.00,,,0.04,,2013-05-12 16:33:00,
2013-05-12 12:42:00,83.0,75.0,30.01,SSE,161,4.0,13.0,76,0.00,,,0.04,,2013-05-12 16:42:00,
2013-05-12 12:52:00,82.0,73.0,30.00,South,171,8.0,18.0,75,0.00,,,0.04,,2013-05-12 16:52:00,
2013-05-12 13:02:00,83.0,74.0,30.00,South,172,8.0,17.0,74,0.00,,,0.04,,2013-05-12 17:02:00,
2013-05-12 13:12:00,83.0,74.0,29.99,SE,136,5.0,15.0,75,0.00,,,0.04,,2013-05-12 17:12:00,
2013-05-12 13:22:00,83.0,74.0,29.99,SE,136,5.0,15.0,75,0.00,,,0.04,,2013-05-12 17:22:00,
2013-05-12 13:32:00,82.0,72.0,29.99,SSE,162,5.0,15.0,73,0.00,,,0.04,,2013-05-12 17:32:00,
2013-05-12 13:42:00,83.0,74.0,29.98,SSE,147,8.0,13.0,74,0.00,,,0.04,,2013-05-12 17:42:00,
2013-05-12 13:52:00,83.0,74.0,29.98,SSE,147,8.0,13.0,74,0.00,,,0.04,,2013-05-12 17:52:00,
2013-05-12 14:01:00,83.0,73.0,29.98,South,177,7.0,15.0,73,0.00,,,0.04,,2013-05-12 18:01:00,
2013-05-12 14:12:00,83.0,73.0,29.98,South,177,7.0,15.0,73,0.00,,,0.04,,2013-05-12 18:12:00,
2013-05-12 14:22:00,83.0,73.0,29.97,SSE,147,8.0,17.0,73,0.00,,,0.04,,2013-05-12 18:22:00,
2013-05-12 14:32:00,82.0,72.0,29.97,SE,128,9.0,18.0,72,0.00,,,0.04,,2013-05-12 18:32:00,
2013-05-12 14:42:00,82.0,72.0,29.97,SE,128,9.0,18.0,72,0.00,,,0.04,,2013-05-12 18:42:00,
2013-05-12 14:51:00,82.0,73.0,29.96,SE,142,9.0,16.0,74,0.00,,,0.04,,2013-05-12 18:51:00,
2013-05-12 15:01:00,83.0,73.0,29.96,SSE,148,7.0,19.0,73,0.00,,,0.04,,2013-05-12 19:01:00,
2013-05-12 15:11:00,83.0,73.0,29.96,SSE,148,7.0,19.0,73,0.00,,,0.04,,2013-05-12 19:11:00,
2013-05-12 15:22:00,82.0,73.0,29.96,SSE,156,7.0,20.0,75,0.00,,,0.04,,2013-05-12 19:22:00,
2013-05-12 15:32:00,81.0,72.0,29.95,SSE,164,6.0,14.0,75,0.00,,,0.04,,2013-05-12 19:32:00,
2013-05-12 15:42:00,81.0,72.0,29.94,SSE,156,7.0,13.0,75,0.00,,,0.04,,2013-05-12 19:42:00,
2013-05-12 15:52:00,81.0,72.0,29.94,SSE,156,7.0,13.0,75,0.00,,,0.04,,2013-05-12 19:52:00,
2013-05-12 16:02:00,81.0,73.0,29.94,SSE,154,8.0,16.0,76,0.00,,,0.04,,2013-05-12 20:02:00,
2013-05-12 16:11:00,81.0,73.0,29.93,SSE,150,7.0,15.0,77,0.00,,,0.03,,2013-05-12 20:11:00,
2013-05-12 16:21:00,81.0,73.0,29.93,SSE,150,7.0,15.0,77,0.00,,,0.03,,2013-05-12 20:21:00,
2013-05-12 16:32:00,81.0,73.0,29.94,SSE,147,6.0,15.0,77,0.00,,,0.03,,2013-05-12 20:32:00,
2013-05-12 16:42:00,81.0,73.0,29.94,SSE,147,6.0,15.0,77,0.00,,,0.03,,2013-05-12 20:42:00,
2013-05-12 16:51:00,80.0,72.0,29.94,SE,140,6.0,14.0,77,0.00,,,0.03,,2013-05-12 20:51:00,
2013-05-12 17:01:00,80.0,72.0,29.94,SSE,150,7.0,16.0,77,0.00,,,0.03,,2013-05-12 21:01:00,
2013-05-12 17:11:00,80.0,72.0,29.94,SE,134,6.0,16.0,77,0.00,,,0.01,,2013-05-12 21:11:00,
2013-05-12 17:21:00,80.0,72.0,29.94,SE,134,6.0,16.0,77,0.00,,,0.01,,2013-05-12 21:21:00,
2013-05-12 17:33:00,80.0,72.0,29.95,SSE,158,7.0,12.0,77,0.00,,,0.01,,2013-05-12 21:33:00,
2013-05-12 17:42:00,80.0,72.0,29.95,SSE,158,7.0,12.0,77,0.00,,,0.01,,2013-05-12 21:42:00,
2013-05-12 17:53:00,80.0,72.0,29.95,SSE,165,6.0,12.0,77,0.00,,,0.01,,2013-05-12 21:53:00,
2013-05-12 18:02:00,80.0,72.0,29.95,SSE,163,8.0,15.0,76,0.00,,,0.01,,2013-05-12 22:02:00,
2013-05-12 18:12:00,81.0,72.0,29.94,SSE,153,5.0,12.0,75,0.00,,,0.01,,2013-05-12 22:12:00,
2013-05-12 18:23:00,81.0,72.0,29.94,SSE,153,5.0,12.0,75,0.00,,,0.01,,2013-05-12 22:23:00,
2013-05-12 18:33:00,81.0,72.0,29.96,SSE,158,4.0,9.0,74,0.00,,,0.01,,2013-05-12 22:33:00,
2013-05-12 18:42:00,81.0,72.0,29.96,SSE,158,4.0,9.0,74,0.00,,,0.01,,2013-05-12 22:42:00,
2013-05-12 18:52:00,80.0,72.0,29.97,South,180,2.0,8.0,77,0.00,,,0.01,,2013-05-12 22:52:00,
2013-05-12 19:02:00,79.0,72.0,29.97,SSW,195,5.0,10.0,78,0.00,,,0.01,,2013-05-12 23:02:00,
2013-05-12 19:12:00,79.0,72.0,29.97,SSE,166,1.0,7.0,79,0.00,,,0.01,,2013-05-12 23:12:00,
2013-05-12 19:22:00,79.0,72.0,29.97,SSE,166,1.0,7.0,79,0.00,,,0.01,,2013-05-12 23:22:00,
2013-05-12 19:32:00,79.0,72.0,29.97,SSE,161,0.0,4.0,80,0.00,,,0.01,,2013-05-12 23:32:00,
2013-05-12 19:42:00,79.0,72.0,29.97,SSE,161,0.0,4.0,80,0.00,,,0.01,,2013-05-12 23:42:00,
2013-05-12 19:52:00,79.0,72.0,29.98,SSE,148,0.0,6.0,79,0.00,,,0.01,,2013-05-12 23:52:00,
2013-05-12 20:01:00,78.0,70.0,30.00,North,351,3.0,12.0,76,0.00,,,0.01,,2013-05-13 00:01:00,
2013-05-12 20:11:00,78.0,70.0,30.00,North,351,3.0,12.0,76,0.00,,,0.01,,2013-05-13 00:11:00,
2013-05-12 20:21:00,76.0,67.0,30.01,NNW,343,4.0,13.0,73,0.00,,,0.01,,2013-05-13 00:21:00,
2013-05-12 20:32:00,74.0,68.0,30.01,NNW,340,5.0,8.0,82,0.08,,,0.09,,2013-05-13 00:32:00,
2013-05-12 20:42:00,73.0,69.0,30.01,SSE,148,0.0,3.0,86,0.22,,,0.23,,2013-05-13 00:42:00,
2013-05-12 20:51:00,73.0,69.0,30.01,SSE,148,0.0,3.0,86,0.22,,,0.23,,2013-05-13 00:51:00,
2013-05-12 21:01:00,73.0,69.0,30.01,SE,139,0.0,3.0,88,0.22,,,0.23,,2013-05-13 01:01:00,
2013-05-12 21:11:00,73.0,69.0,30.01,SE,139,0.0,3.0,88,0.22,,,0.23,,2013-05-13 01:11:00,
2013-05-12 21:22:00,73.0,70.0,30.01,SE,139,0.0,1.0,89,0.22,,,0.22,,2013-05-13 01:22:00,
2013-05-12 21:32:00,73.0,70.0,30.01,SE,139,0.0,1.0,89,0.13,,,0.22,,2013-05-13 01:32:00,
2013-05-12 21:42:00,73.0,70.0,30.01,SE,139,0.0,1.0,89,0.13,,,0.22,,2013-05-13 01:42:00,
2013-05-12 21:52:00,73.0,70.0,30.01,SE,139,0.0,0.0,90,0.00,,,0.22,,2013-05-13 01:52:00,
2013-05-12 22:02:00,73.0,70.0,30.01,SE,139,0.0,0.0,90,0.00,,,0.22,,2013-05-13 02:02:00,
2013-05-12 22:11:00,73.0,70.0,30.01,SE,139,0.0,0.0,90,0.00,,,0.22,,2013-05-13 02:11:00,
2013-05-12 22:21:00,73.0,70.0,30.02,SE,139,0.0,0.0,91,0.00,,,0.22,,2013-05-13 02:21:00,
2013-05-12 22:32:00,74.0,71.0,30.02,SE,139,0.0,1.0,91,0.00,,,0.22,,2013-05-13 02:32:00,
2013-05-12 22:42:00,74.0,71.0,30.02,SE,139,0.0,1.0,91,0.00,,,0.22,,2013-05-13 02:42:00,
2013-05-12 22:52:00,74.0,71.0,30.02,SE,139,0.0,0.0,91,0.00,,,0.22,,2013-05-13 02:52:00,
2013-05-12 23:02:00,74.0,71.0,30.03,SE,139,0.0,0.0,91,0.00,,,0.22,,2013-05-13 03:02:00,
2013-05-12 23:11:00,74.0,71.0,30.03,SE,139,0.0,0.0,91,0.00,,,0.22,,2013-05-13 03:11:00,
2013-05-12 23:21:00,74.0,71.0,30.03,SE,139,0.0,0.0,91,0.00,,,0.22,,2013-05-13 03:21:00,
2013-05-12 23:33:00,74.0,71.0,30.03,SE,139,0.0,0.0,91,0.00,,,0.22,,2013-05-13 03:33:00,
2013-05-12 23:42:00,74.0,71.0,30.03,SE,139,0.0,0.0,91,0.00,,,0.22,,2013-05-13 03:42:00,
2013-05-12 23:52:00,74.0,72.0,30.03,SE,139,0.0,1.0,92,0.00,,,0.22,,2013-05-13 03:52:00,